timestamp,wind_dir_avg,wind_spd_avg,wind_spd_max_dir,wind_spd_gust,battery_voltage,lat,long
2022-11-30 00:04:00+00:00,315.0,6.02,312.0,7.31,12.41,47.59359,-54.27349
2022-11-30 00:14:00+00:00,317.0,6.53,307.0,7.8,12.41,47.59359,-54.27349
2022-11-30 00:24:00+00:00,317.0,11.12,322.0,13.59,12.41,47.59359,-54.27349
2022-11-30 00:34:00+00:00,325.0,10.38,330.0,11.74,12.41,47.59359,-54.27349
2022-11-30 00:44:00+00:00,325.0,8.98,318.0,11.22,12.41,47.59359,-54.27349
2022-11-30 00:54:00+00:00,312.0,8.09,308.0,9.22,12.41,47.59359,-54.27349
2022-11-30 01:04:00+00:00,330.0,7.65,334.0,8.47,12.41,47.59359,-54.27349
2022-11-30 01:14:00+00:00,322.0,6.47,322.0,8.19,12.41,47.59359,-54.27349
2022-11-30 01:24:00+00:00,325.0,6.26,326.0,7.29,12.41,47.59359,-54.27349
2022-11-30 01:34:00+00:00,319.0,7.18,325.0,8.2,12.41,47.59359,-54.27349
2022-11-30 01:44:00+00:00,315.0,6.6,316.0,7.74,12.41,47.59359,-54.27349
2022-11-30 01:54:00+00:00,320.0,6.55,322.0,8.6,12.41,47.59359,-54.27349
2022-11-30 02:04:00+00:00,312.0,6.91,305.0,8.18,12.41,47.59359,-54.27349
2022-11-30 02:14:00+00:00,314.0,6.75,310.0,10.18,12.41,47.59359,-54.27349
2022-11-30 02:24:00+00:00,297.0,5.81,292.0,8.28,12.41,47.59359,-54.27349
2022-11-30 02:34:00+00:00,312.0,6.68,311.0,7.57,12.41,47.59359,-54.27349
2022-11-30 02:44:00+00:00,313.0,9.49,313.0,11.95,12.41,47.59359,-54.27349
2022-11-30 02:54:00+00:00,311.0,9.34,319.0,11.2,12.41,47.59359,-54.27349
2022-11-30 03:04:00+00:00,314.0,9.29,317.0,10.68,12.41,47.59359,-54.27349
2022-11-30 03:14:00+00:00,298.0,10.75,298.0,15.32,12.41,47.59359,-54.27349
2022-11-30 03:24:00+00:00,314.0,8.59,319.0,10.36,12.41,47.59359,-54.27349
2022-11-30 03:34:00+00:00,323.0,10.22,334.0,11.31,12.41,47.59359,-54.27349
2022-11-30 03:44:00+00:00,326.0,8.97,323.0,11.73,12.41,47.59359,-54.27349
2022-11-30 03:54:00+00:00,324.0,8.52,323.0,10.12,12.41,47.59359,-54.27349
2022-11-30 04:04:00+00:00,316.0,8.19,313.0,10.12,12.41,47.59359,-54.27349
2022-11-30 04:14:01+00:00,314.0,9.58,309.0,13.82,12.33,47.59359,-54.27349
2022-11-30 04:24:01+00:00,332.0,9.33,332.0,10.52,12.33,47.59359,-54.27349
2022-11-30 04:34:01+00:00,334.0,9.29,330.0,10.55,12.33,47.59359,-54.27349
2022-11-30 04:44:01+00:00,311.0,7.46,312.0,9.56,12.33,47.59359,-54.27349
2022-11-30 04:54:01+00:00,315.0,8.92,311.0,10.28,12.33,47.59359,-54.27349
2022-11-30 05:04:01+00:00,325.0,8.08,310.0,9.52,12.33,47.59359,-54.27349
2022-11-30 05:14:00+00:00,295.0,10.13,295.0,14.08,12.33,47.59359,-54.27349
2022-11-30 05:24:00+00:00,330.0,8.99,328.0,10.0,12.33,47.59359,-54.27349
2022-11-30 05:34:00+00:00,314.0,5.77,313.0,7.03,12.33,47.59359,-54.27349
2022-11-30 05:44:00+00:00,311.0,6.79,304.0,9.34,12.33,47.59359,-54.27349
2022-11-30 05:54:00+00:00,308.0,5.51,291.0,7.73,12.33,47.59359,-54.27349
2022-11-30 06:04:00+00:00,317.0,5.96,299.0,8.49,12.33,47.59359,-54.27349
2022-11-30 06:14:00+00:00,315.0,6.25,312.0,7.31,12.33,47.59359,-54.27349
2022-11-30 06:24:00+00:00,298.0,5.42,288.0,7.56,12.33,47.59359,-54.27349
2022-11-30 06:34:00+00:00,313.0,5.58,291.0,8.05,12.33,47.59359,-54.27349
2022-11-30 06:44:00+00:00,308.0,5.38,294.0,7.4,12.33,47.59359,-54.27349
2022-11-30 06:54:00+00:00,295.0,6.02,285.0,8.03,12.33,47.59359,-54.27349
2022-11-30 07:04:00+00:00,301.0,5.48,294.0,6.86,12.33,47.59359,-54.27349
2022-11-30 07:14:01+00:00,288.0,5.37,301.0,6.68,12.25,47.59359,-54.27349
2022-11-30 07:24:01+00:00,311.0,6.09,308.0,9.33,12.25,47.59359,-54.27349
2022-11-30 07:34:01+00:00,279.0,7.94,274.0,10.49,12.25,47.59359,-54.27349
2022-11-30 07:44:01+00:00,284.0,6.59,288.0,8.49,12.25,47.59359,-54.27349
2022-11-30 07:54:01+00:00,295.0,5.4,289.0,7.8,12.25,47.59359,-54.27349
2022-11-30 08:04:01+00:00,296.0,5.38,289.0,7.89,12.25,47.59359,-54.27349
2022-11-30 08:14:00+00:00,295.0,6.37,283.0,8.42,12.33,47.59359,-54.27349
2022-11-30 08:24:00+00:00,309.0,6.55,294.0,8.18,12.33,47.59359,-54.27349
2022-11-30 08:34:00+00:00,311.0,5.9,306.0,9.06,12.33,47.59359,-54.27349
2022-11-30 08:44:00+00:00,329.0,6.87,308.0,9.42,12.33,47.59359,-54.27349
2022-11-30 08:54:00+00:00,320.0,6.36,323.0,7.29,12.33,47.59359,-54.27349
2022-11-30 09:04:00+00:00,311.0,5.45,322.0,6.85,12.33,47.59359,-54.27349
2022-11-30 09:14:00+00:00,321.0,6.67,313.0,8.1,12.25,47.59359,-54.27349
2022-11-30 09:24:00+00:00,310.0,5.94,300.0,7.66,12.25,47.59359,-54.27349
2022-11-30 09:34:00+00:00,323.0,6.66,313.0,8.03,12.25,47.59359,-54.27349
2022-11-30 09:44:00+00:00,327.0,6.78,315.0,8.77,12.25,47.59359,-54.27349
2022-11-30 09:54:00+00:00,328.0,6.48,329.0,8.44,12.25,47.59359,-54.27349
2022-11-30 10:04:00+00:00,315.0,7.3,312.0,10.46,12.25,47.59359,-54.27349
2022-11-30 10:14:01+00:00,300.0,8.07,292.0,10.88,12.25,47.59359,-54.27349
2022-11-30 10:24:01+00:00,319.0,6.15,306.0,8.68,12.25,47.59359,-54.27349
2022-11-30 10:34:01+00:00,326.0,5.15,318.0,6.77,12.25,47.59359,-54.27349
2022-11-30 10:44:01+00:00,316.0,6.43,321.0,7.55,12.25,47.59359,-54.27349
2022-11-30 10:54:01+00:00,322.0,3.99,301.0,7.23,12.25,47.59359,-54.27349
2022-11-30 11:04:01+00:00,313.0,5.36,314.0,7.38,12.25,47.59359,-54.27349
2022-11-30 11:14:00+00:00,325.0,6.07,324.0,7.17,12.25,47.59359,-54.27349
2022-11-30 11:24:00+00:00,316.0,6.5,314.0,10.55,12.25,47.59359,-54.27349
2022-11-30 11:34:00+00:00,314.0,5.89,298.0,7.8,12.25,47.59359,-54.27349
2022-11-30 11:44:00+00:00,319.0,6.52,316.0,8.28,12.25,47.59359,-54.27349
2022-11-30 11:54:00+00:00,305.0,5.12,298.0,7.28,12.25,47.59359,-54.27349
2022-11-30 12:04:00+00:00,318.0,6.77,321.0,8.39,12.25,47.59359,-54.27349
2022-11-30 12:14:00+00:00,328.0,6.74,327.0,8.69,14.4,47.59359,-54.27349
2022-11-30 12:24:00+00:00,317.0,7.07,313.0,9.79,14.4,47.59359,-54.27349
2022-11-30 12:34:00+00:00,329.0,7.23,324.0,9.28,14.4,47.59359,-54.27349
2022-11-30 12:44:00+00:00,329.0,8.32,322.0,9.57,14.4,47.59359,-54.27349
2022-11-30 12:54:00+00:00,316.0,6.52,313.0,8.95,14.4,47.59359,-54.27349
2022-11-30 13:04:00+00:00,330.0,7.25,320.0,8.76,14.4,47.59359,-54.27349
2022-11-30 13:14:01+00:00,327.0,6.74,318.0,8.57,13.68,47.59359,-54.27349
2022-11-30 13:24:01+00:00,328.0,8.02,321.0,9.59,13.68,47.59359,-54.27349
2022-11-30 13:34:01+00:00,328.0,7.33,329.0,9.22,13.68,47.59359,-54.27349
2022-11-30 13:44:01+00:00,326.0,7.49,330.0,8.87,13.68,47.59359,-54.27349
2022-11-30 13:54:01+00:00,323.0,7.64,319.0,9.05,13.68,47.59359,-54.27349
2022-11-30 14:04:01+00:00,317.0,7.11,318.0,8.53,13.68,47.59359,-54.27349
2022-11-30 14:14:00+00:00,332.0,7.77,325.0,10.27,14.64,47.59359,-54.27349
2022-11-30 14:24:00+00:00,323.0,9.09,323.0,10.34,14.64,47.59359,-54.27349
2022-11-30 14:34:00+00:00,326.0,7.49,319.0,9.41,14.64,47.59359,-54.27349
2022-11-30 14:44:00+00:00,321.0,7.21,317.0,8.67,14.64,47.59359,-54.27349
2022-11-30 14:54:00+00:00,353.0,6.93,328.0,10.63,14.64,47.59359,-54.27349
2022-11-30 15:04:00+00:00,317.0,8.39,322.0,9.13,14.64,47.59359,-54.27349
2022-11-30 15:14:00+00:00,335.0,6.38,318.0,9.16,13.6,47.59359,-54.27349
2022-11-30 15:24:00+00:00,314.0,7.04,318.0,7.94,13.6,47.59359,-54.27349
2022-11-30 15:34:00+00:00,334.0,6.24,319.0,8.06,13.6,47.59359,-54.27349
2022-11-30 15:44:00+00:00,332.0,7.79,324.0,9.41,13.6,47.59359,-54.27349
2022-11-30 15:54:00+00:00,355.0,5.39,320.0,7.73,13.6,47.59359,-54.27349
2022-11-30 16:04:00+00:00,319.0,7.66,317.0,8.65,13.6,47.59359,-54.27349
2022-11-30 18:14:00+00:00,327.0,4.99,327.0,5.69,13.76,47.59359,-54.27349
2022-11-30 18:24:00+00:00,313.0,3.2,320.0,4.36,13.76,47.59359,-54.27349
2022-11-30 18:34:00+00:00,313.0,3.61,324.0,4.68,13.76,47.59359,-54.27349
2022-11-30 18:44:00+00:00,319.0,3.86,320.0,4.63,13.76,47.59359,-54.27349
2022-11-30 18:54:00+00:00,303.0,3.41,310.0,4.13,13.76,47.59359,-54.27349
2022-11-30 19:04:00+00:00,314.0,4.74,316.0,5.38,13.76,47.59359,-54.27349
2022-11-30 19:14:00+00:00,301.0,2.26,299.0,2.76,13.6,47.59359,-54.27349
2022-11-30 19:24:00+00:00,319.0,3.09,300.0,3.78,13.6,47.59359,-54.27349
2022-11-30 19:34:00+00:00,296.0,3.44,305.0,4.73,13.6,47.59359,-54.27349
2022-11-30 19:44:00+00:00,289.0,3.16,268.0,3.64,13.6,47.59359,-54.27349
2022-11-30 19:54:00+00:00,268.0,2.18,268.0,2.94,13.6,47.59359,-54.27349
2022-11-30 20:04:00+00:00,337.0,3.67,341.0,4.41,13.6,47.59359,-54.27349
2022-11-30 20:14:00+00:00,338.0,4.05,343.0,4.52,12.65,47.59359,-54.27349
2022-11-30 20:24:00+00:00,315.0,2.0,306.0,2.53,12.65,47.59359,-54.27349
2022-11-30 20:34:00+00:00,298.0,2.24,300.0,3.23,12.65,47.59359,-54.27349
2022-11-30 20:44:00+00:00,313.0,1.85,308.0,2.26,12.65,47.59359,-54.27349
2022-11-30 20:54:00+00:00,150.0,1.11,146.0,1.36,12.65,47.59359,-54.27349
2022-11-30 21:04:00+00:00,311.0,0.6,323.0,1.05,12.65,47.59359,-54.27349
2022-11-30 21:14:00+00:00,325.0,1.58,311.0,2.58,12.41,47.59359,-54.27349
2022-11-30 21:24:00+00:00,69.0,0.78,84.0,1.42,12.41,47.59359,-54.27349
2022-11-30 21:34:00+00:00,296.0,1.03,296.0,1.24,12.41,47.59359,-54.27349
2022-11-30 21:44:00+00:00,292.0,0.62,306.0,0.89,12.41,47.59359,-54.27349
2022-11-30 21:54:00+00:00,221.0,0.65,229.0,1.25,12.41,47.59359,-54.27349
2022-11-30 22:04:00+00:00,281.0,0.82,293.0,1.67,12.41,47.59359,-54.27349
2022-11-30 22:14:00+00:00,266.0,1.06,250.0,1.66,12.41,47.59359,-54.27349
2022-11-30 22:24:00+00:00,163.0,1.05,154.0,1.56,12.41,47.59359,-54.27349
2022-11-30 22:34:00+00:00,210.0,1.86,211.0,2.4,12.41,47.59359,-54.27349
2022-11-30 22:44:00+00:00,218.0,2.71,227.0,3.37,12.41,47.59359,-54.27349
2022-11-30 22:54:00+00:00,160.0,4.13,168.0,4.68,12.41,47.59359,-54.27349
2022-11-30 23:04:00+00:00,163.0,4.77,162.0,5.42,12.41,47.59359,-54.27349
2022-11-30 23:14:00+00:00,162.0,4.39,168.0,5.22,12.41,47.59359,-54.27349
2022-11-30 23:24:00+00:00,161.0,4.36,153.0,4.88,12.41,47.59359,-54.27349
2022-11-30 23:34:00+00:00,175.0,5.76,180.0,7.06,12.41,47.59359,-54.27349
2022-11-30 23:44:00+00:00,180.0,5.99,187.0,7.06,12.41,47.59359,-54.27349
2022-11-30 23:54:00+00:00,189.0,5.71,184.0,6.57,12.41,47.59359,-54.27349
